K5GHS-1 Weather Reports


Display with metric or nautical units.
time (UTC)temp
F
wind
direction
speed
MPH
gust
MPH
rain 1hr
in
rain 24hr
in
rain mn
in
humidity
%
barometer
mb
20260906181126 97 95 2.0 5.0 0.00 0.00 0.00 47 1012.4
20260906180621 96 46 4.0 7.0 0.00 0.00 0.00 47 1012.5
20260906180115 96 87 5.0 7.0 0.00 0.00 0.00 48 1012.6
20260906175613 97 62 2.0 5.0 0.00 0.00 0.00 47 1012.6
20260906175109 97 83 3.0 6.0 0.00 0.00 0.00 47 1012.5
20260906174606 96 88 0.0 3.0 0.00 0.00 0.00 49 1012.6
20260906174101 96 113 2.0 5.0 0.00 0.00 0.00 50 1013.0
20260906173556 95 5 1.0 3.0 0.00 0.00 0.00 49 1012.7
20260906173053 95 84 3.0 6.0 0.00 0.00 0.00 50 1013.0
20260906172552 95 88 3.0 6.0 0.00 0.00 0.00 51 1013.0
20260906172047 95 113 5.0 6.0 0.00 0.00 0.00 50 1013.5
20260906171542 94 75 3.0 6.0 0.00 0.00 0.00 51 1013.4
20260906171038 95 108 1.0 6.0 0.00 0.00 0.00 51 1013.4
20260906170533 94 70 0.0 3.0 0.00 0.00 0.00 51 1013.4
20260906170032 95 91 1.0 8.0 0.00 0.00 0.00 52 1013.4
20260906165529 94 83 2.0 5.0 0.00 0.00 0.00 51 1013.4
20260906165024 94 99 2.0 5.0 0.00 0.00 0.00 52 1013.6
20260906164523 94 68 1.0 5.0 0.00 0.00 0.00 51 1013.5
20260906164019 94 127 2.0 3.0 0.00 0.00 0.00 52 1013.5
20260906163514 94 67 3.0 5.0 0.00 0.00 0.00 51 1013.4
20260906163010 94 86 1.0 3.0 0.00 0.00 0.00 53 1013.3
20260906162507 94 96 1.0 6.0 0.00 0.00 0.00 52 1013.2
20260906162002 93 68 3.0 3.0 0.00 0.00 0.00 54 1013.3
20260906161502 93 82 1.0 2.0 0.00 0.00 0.00 54 1013.2
20260906161000 93 103 0.0 3.0 0.00 0.00 0.00 55 1013.1
20260906160455 93 99 1.0 5.0 0.00 0.00 0.00 55 1013.3
20260906155953 94 67 0.0 5.0 0.00 0.00 0.00 55 1013.1
20260906155452 93 64 0.0 2.0 0.00 0.00 0.00 55 1013.3
20260906154948 93 76 1.0 2.0 0.00 0.00 0.00 60 1013.1
20260906154443 92 122 2.0 3.0 0.00 0.00 0.00 58 1013.3
20260906153941 92 47 1.0 2.0 0.00 0.00 0.00 61 1013.0
20260906153440 92 100 1.0 3.0 0.00 0.00 0.00 62 1013.1
20260906152935 91 60 0.0 3.0 0.00 0.00 0.00 63 1013.4
20260906152430 91 115 0.0 1.0 0.00 0.00 0.00 65 1013.0
20260906151929 90 87 1.0 1.0 0.00 0.00 0.00 66 1013.3
20260906151425 90 104 0.0 3.0 0.00 0.00 0.00 69 1013.1
20260906150920 90 85 3.0 5.0 0.00 0.00 0.00 68 1013.1
20260906150415 89 77 0.0 1.0 0.00 0.00 0.00 69 1013.0
20260906145915 88 75 1.0 3.0 0.00 0.00 0.00 71 1013.1
20260906145414 89 85 1.0 2.0 0.00 0.00 0.00 71 1012.8
20260906144909 89 120 2.0 2.0 0.00 0.00 0.00 71 1013.0
20260906144403 88 90 0.0 1.0 0.00 0.00 0.00 73 1013.0
20260906143859 87 69 0.0 2.0 0.00 0.00 0.00 74 1013.2
20260906143354 87 76 1.0 2.0 0.00 0.00 0.00 73 1013.0
20260906142850 87 66 1.0 2.0 0.00 0.00 0.00 73 1013.0
20260906142344 86 67 0.0 1.0 0.00 0.00 0.00 75 1013.0
20260906141845 86 75 0.0 1.0 0.00 0.00 0.00 77 1013.2
20260906141339 85 75 0.0 2.0 0.00 0.00 0.00 77 1013.3
20260906140838 85 63 0.0 2.0 0.00 0.00 0.00 78 1013.2
20260906140333 85 75 1.0 2.0 0.00 0.00 0.00 78 1013.0
20260906135831 84 77 0.0 2.0 0.00 0.00 0.00 80 1013.0
20260906135326 83 72 0.0 2.0 0.00 0.00 0.00 82 1012.8
20260906134821 83 83 1.0 2.0 0.00 0.00 0.00 83 1012.7
20260906134316 82 78 1.0 1.0 0.00 0.00 0.00 85 1013.0
20260906133812 81 72 1.0 1.0 0.00 0.00 0.00 87 1013.2
20260906133308 80 75 1.0 3.0 0.00 0.00 0.00 87 1012.7
20260906132802 80 80 1.0 2.0 0.00 0.00 0.00 88 1013.0
20260906132257 80 68 0.0 1.0 0.00 0.00 0.00 88 1013.0
20260906131753 80 74 0.0 2.0 0.00 0.00 0.00 89 1013.1
20260906131248 79 67 1.0 1.0 0.00 0.00 0.00 90 1013.0
20260906130743 79 67 0.0 1.0 0.00 0.00 0.00 90 1013.2
20260906130238 79 67 0.0 1.0 0.00 0.00 0.00 91 1013.2
20260906125737 78 84 0.0 0.0 0.00 0.00 0.00 91 1012.8
20260906125235 78 71 1.0 1.0 0.00 0.00 0.00 91 1013.0
20260906124730 77 76 0.0 0.0 0.00 0.00 0.00 92 1012.6
20260906124226 77 69 0.0 0.0 0.00 0.00 0.00 91 1012.8
20260906123724 77 67 0.0 0.0 0.00 0.00 0.00 91 1012.8
20260906123220 77 67 0.0 0.0 0.00 0.00 0.00 91 1012.7
20260906122719 77 71 0.0 0.0 0.00 0.00 0.00 91 1012.8
20260906122215 77 68 0.0 0.0 0.00 0.00 0.00 91 1012.6
20260906121711 77 69 0.0 1.0 0.00 0.00 0.00 91 1012.6
20260906121207 77 63 0.0 0.0 0.00 0.00 0.00 91 1012.5
20260906120703 77 72 0.0 0.0 0.00 0.00 0.00 91 1012.4
20260906120159 77 70 0.0 0.0 0.00 0.00 0.00 90 1012.3
20260906115654 77 70 0.0 0.0 0.00 0.00 0.00 90 1012.3
20260906115150 77 71 0.0 0.0 0.00 0.00 0.00 90 1012.2
20260906114648 77 71 0.0 0.0 0.00 0.00 0.00 90 1012.1
20260906114144 77 69 0.0 0.0 0.00 0.00 0.00 90 1011.9
20260906113643 77 69 0.0 0.0 0.00 0.00 0.00 90 1012.0
20260906113138 78 67 0.0 0.0 0.00 0.00 0.00 90 1012.1
20260906112637 78 75 0.0 0.0 0.00 0.00 0.00 90 1012.0
20260906112135 78 81 0.0 1.0 0.00 0.00 0.00 90 1011.9
20260906111634 78 76 0.0 1.0 0.00 0.00 0.00 89 1012.2
20260906111129 78 76 0.0 1.0 0.00 0.00 0.00 89 1012.1
20260906110624 78 74 0.0 0.0 0.00 0.00 0.00 89 1012.0
20260906110118 78 74 0.0 1.0 0.00 0.00 0.00 89 1012.1
20260906105612 78 65 1.0 2.0 0.00 0.00 0.00 89 1012.0
20260906105109 78 73 0.0 0.0 0.00 0.00 0.00 88 1011.7
20260906104608 78 74 0.0 0.0 0.00 0.00 0.00 88 1011.7
20260906104102 78 78 0.0 0.0 0.00 0.00 0.00 88 1011.8
20260906103600 78 74 0.0 0.0 0.00 0.00 0.00 88 1011.9
20260906103056 78 71 0.0 0.0 0.00 0.00 0.00 88 1011.8
20260906102555 78 71 0.0 0.0 0.00 0.00 0.00 88 1011.8
20260906102051 78 70 0.0 0.0 0.00 0.00 0.00 87 1011.9
20260906101545 78 67 0.0 0.0 0.00 0.00 0.00 87 1011.8
20260906101040 78 68 0.0 0.0 0.00 0.00 0.00 87 1011.9
20260906100535 78 71 0.0 0.0 0.00 0.00 0.00 87 1011.8
20260906100030 78 71 0.0 0.0 0.00 0.00 0.00 87 1011.5
20260906095524 78 71 0.0 0.0 0.00 0.00 0.00 86 1011.5
20260906095020 78 69 0.0 0.0 0.00 0.00 0.00 86 1011.5
20260906094519 78 67 0.0 0.0 0.00 0.00 0.00 86 1011.6
20260906094015 79 67 0.0 0.0 0.00 0.00 0.00 86 1011.6
20260906093511 79 70 0.0 0.0 0.00 0.00 0.00 85 1011.4
20260906093011 79 71 0.0 0.0 0.00 0.00 0.00 84 1011.5
20260906092505 79 73 0.0 0.0 0.00 0.00 0.00 84 1011.4
20260906092001 79 73 0.0 0.0 0.00 0.00 0.00 84 1011.3
20260906091456 80 73 0.0 0.0 0.00 0.00 0.00 84 1011.5
20260906090953 80 67 0.0 0.0 0.00 0.00 0.00 84 1011.2
20260906090448 80 71 0.0 0.0 0.00 0.00 0.00 83 1011.2
20260906085947 80 71 0.0 0.0 0.00 0.00 0.00 83 1011.3
20260906085447 80 75 0.0 0.0 0.00 0.00 0.00 83 1011.3
20260906084946 80 77 0.0 1.0 0.00 0.00 0.00 83 1011.0
20260906084441 80 88 0.0 1.0 0.00 0.00 0.00 83 1011.2
20260906083940 80 76 0.0 1.0 0.00 0.00 0.00 83 1011.1
20260906083436 80 70 0.0 0.0 0.00 0.00 0.00 83 1010.9
20260906082935 80 74 0.0 1.0 0.00 0.00 0.00 82 1011.1
20260906082430 81 84 0.0 1.0 0.00 0.00 0.00 81 1011.0
20260906081926 81 80 0.0 0.0 0.00 0.00 0.00 81 1011.0
20260906081421 81 84 0.0 0.0 0.00 0.00 0.00 81 1011.1
20260906080917 81 81 0.0 1.0 0.00 0.00 0.00 81 1011.0
20260906080414 81 77 0.0 0.0 0.00 0.00 0.00 82 1011.3
20260906075912 81 75 0.0 0.0 0.00 0.00 0.00 81 1011.1
20260906075408 81 77 0.0 1.0 0.00 0.00 0.00 80 1011.3
20260906074903 81 75 0.0 0.0 0.00 0.00 0.00 81 1011.2
20260906074403 81 76 0.0 1.0 0.00 0.00 0.00 81 1011.2
20260906073901 81 70 0.0 0.0 0.00 0.00 0.00 82 1011.0
20260906073357 81 76 0.0 0.0 0.00 0.00 0.00 80 1011.0
20260906072853 81 78 0.0 1.0 0.00 0.00 0.00 80 1011.0
20260906072349 81 72 0.0 1.0 0.00 0.00 0.00 80 1010.7
20260906071844 81 70 0.0 0.0 0.00 0.00 0.00 81 1010.9
20260906071339 82 71 0.0 0.0 0.00 0.00 0.00 81 1011.0
20260906070836 82 76 0.0 0.0 0.00 0.00 0.00 78 1011.2
20260906070331 82 76 0.0 1.0 0.00 0.00 0.00 77 1011.3
20260906065826 82 71 0.0 0.0 0.00 0.00 0.00 76 1011.5
20260906065321 82 82 0.0 1.0 0.00 0.00 0.00 76 1011.5
20260906064816 82 76 0.0 0.0 0.00 0.00 0.00 75 1011.3
20260906064313 83 77 0.0 1.0 0.00 0.00 0.00 75 1011.4
20260906063807 83 79 0.0 1.0 0.00 0.00 0.00 75 1011.5
20260906063303 83 75 0.0 1.0 0.00 0.00 0.00 74 1011.3
20260906062758 83 93 1.0 1.0 0.00 0.00 0.00 74 1011.3
20260906062257 83 76 0.0 0.0 0.00 0.00 0.00 74 1011.3
20260906061752 83 83 0.0 1.0 0.00 0.00 0.00 73 1011.2
20260906061249 83 107 0.0 1.0 0.00 0.00 0.00 73 1011.3
20260906060744 84 77 0.0 1.0 0.00 0.00 0.00 73 1011.3
20260906060241 84 85 0.0 1.0 0.00 0.00 0.00 72 1011.5
20260906055737 84 77 0.0 1.0 0.00 0.00 0.00 72 1011.4
20260906055232 84 82 0.0 1.0 0.00 0.00 0.00 71 1011.4
20260906054727 84 74 0.0 2.0 0.00 0.00 0.00 71 1011.4
20260906054222 84 77 0.0 2.0 0.00 0.00 0.00 70 1011.7
20260906053719 84 81 0.0 1.0 0.00 0.00 0.00 70 1011.6
20260906053214 84 76 0.0 0.0 0.00 0.00 0.00 71 1011.4
20260906052709 84 81 0.0 2.0 0.00 0.00 0.00 71 1011.4
20260906052205 84 83 0.0 1.0 0.00 0.00 0.00 71 1011.3
20260906051702 84 75 0.0 0.0 0.00 0.00 0.00 71 1011.3
20260906051201 84 76 0.0 2.0 0.00 0.00 0.00 71 1011.3
20260906050657 85 75 0.0 1.0 0.00 0.00 0.00 71 1011.3
20260906050152 85 79 0.0 0.0 0.00 0.00 0.00 71 1011.4
20260906045650 85 76 0.0 0.0 0.00 0.00 0.00 71 1011.3
20260906045146 85 85 0.0 1.0 0.00 0.00 0.00 70 1011.1
20260906044642 85 77 0.0 0.0 0.00 0.00 0.00 70 1011.2
20260906044137 85 74 0.0 0.0 0.00 0.00 0.00 70 1011.5
20260906043633 85 75 0.0 0.0 0.00 0.00 0.00 70 1011.2
20260906043128 85 81 0.0 0.0 0.00 0.00 0.00 69 1011.7
20260906042627 86 86 1.0 2.0 0.00 0.00 0.00 69 1011.6
20260906042122 85 98 1.0 2.0 0.00 0.00 0.00 69 1011.3
20260906041618 86 79 0.0 1.0 0.00 0.00 0.00 69 1011.2
20260906041112 86 84 1.0 2.0 0.00 0.00 0.00 69 1011.3
20260906040608 86 80 0.0 0.0 0.00 0.00 0.00 68 1011.5
20260906040103 86 93 1.0 2.0 0.00 0.00 0.00 68 1011.3
20260906035558 86 76 0.0 1.0 0.00 0.00 0.00 68 1011.2
20260906035054 86 79 0.0 2.0 0.00 0.00 0.00 68 1011.6
20260906034554 86 81 0.0 1.0 0.00 0.00 0.00 68 1011.4
20260906034049 86 85 0.0 2.0 0.00 0.00 0.00 68 1011.3
20260906033544 86 76 0.0 1.0 0.00 0.00 0.00 68 1011.2
20260906033039 86 81 0.0 1.0 0.00 0.00 0.00 67 1011.2
20260906032536 86 78 0.0 1.0 0.00 0.00 0.00 67 1011.5
20260906032030 87 94 1.0 2.0 0.00 0.00 0.00 67 1011.3
20260906031526 87 124 0.0 1.0 0.00 0.00 0.00 67 1011.7
20260906031016 87 87 0.0 0.0 0.00 0.00 0.00 67 1011.4
20260906030515 87 120 2.0 3.0 0.00 0.00 0.00 66 1011.4
20260906030014 87 96 0.0 2.0 0.00 0.00 0.00 66 1011.5
20260906025514 87 74 0.0 1.0 0.00 0.00 0.00 65 1011.4
20260906025012 87 82 0.0 1.0 0.00 0.00 0.00 65 1011.3
20260906024508 87 79 1.0 1.0 0.00 0.00 0.00 65 1011.2
20260906024002 87 74 0.0 0.0 0.00 0.00 0.00 64 1011.2
20260906023458 87 102 2.0 3.0 0.00 0.00 0.00 64 1010.8
20260906022953 87 101 2.0 3.0 0.00 0.00 0.00 64 1011.0
20260906022449 87 71 0.0 1.0 0.00 0.00 0.00 63 1010.9
20260906021943 88 87 1.0 2.0 0.00 0.00 0.00 62 1010.9
20260906021438 88 76 1.0 2.0 0.00 0.00 0.00 62 1010.9
20260906020932 88 87 1.0 2.0 0.00 0.00 0.00 61 1010.7
20260906020426 88 90 0.0 2.0 0.00 0.00 0.00 61 1010.8
20260906015921 88 89 0.0 2.0 0.00 0.00 0.00 61 1010.9
20260906015415 88 88 1.0 5.0 0.00 0.00 0.00 61 1010.7
20260906014914 89 82 0.0 0.0 0.00 0.00 0.00 61 1010.6
20260906014409 89 106 1.0 2.0 0.00 0.00 0.00 60 1010.5
20260906013905 89 122 1.0 3.0 0.00 0.00 0.00 60 1010.7
20260906013401 90 143 1.0 3.0 0.00 0.00 0.00 59 1010.3
20260906012856 90 88 1.0 3.0 0.00 0.00 0.00 58 1010.4
20260906012351 91 101 2.0 3.0 0.00 0.00 0.00 56 1010.3
20260906011850 91 80 0.0 2.0 0.00 0.00 0.00 55 1010.2
20260906011345 92 101 3.0 5.0 0.00 0.00 0.00 54 1009.9
20260906010841 92 121 3.0 7.0 0.00 0.00 0.00 54 1010.0
20260906010337 93 152 5.0 8.0 0.00 0.00 0.00 53 1009.8
20260906005832 93 108 2.0 6.0 0.00 0.00 0.00 52 1009.6
20260906005332 94 134 3.0 6.0 0.00 0.00 0.00 50 1009.6
20260906004831 95 107 1.0 2.0 0.00 0.00 0.00 47 1009.6
20260906004331 95 77 2.0 3.0 0.00 0.00 0.00 46 1009.3
20260906003826 95 78 0.0 1.0 0.00 0.00 0.00 46 1009.4
20260906003321 95 85 0.0 3.0 0.00 0.00 0.00 46 1009.5
20260906002816 96 72 2.0 2.0 0.00 0.00 0.00 45 1009.5
20260906002315 96 82 1.0 3.0 0.00 0.00 0.00 45 1009.5
20260906001812 96 84 1.0 2.0 0.00 0.00 0.00 44 1009.6
20260906001306 96 79 0.0 2.0 0.00 0.00 0.00 45 1009.6
20260906000801 96 86 2.0 5.0 0.00 0.00 0.00 45 1009.7
20260906000256 96 89 1.0 2.0 0.00 0.00 0.00 45 1009.7
20260905235751 96 72 1.0 5.0 0.00 0.00 0.00 44 1009.6
20260905235250 97 101 3.0 3.0 0.00 0.00 0.00 44 1009.3
20260905234746 97 30 4.0 5.0 0.00 0.00 0.00 43 1009.2
20260905234241 97 87 2.0 3.0 0.00 0.00 0.00 43 1009.1
20260905233737 97 65 1.0 2.0 0.00 0.00 0.00 43 1009.3
20260905233236 97 77 2.0 3.0 0.00 0.00 0.00 43 1009.3
20260905232730 98 79 3.0 5.0 0.00 0.00 0.00 42 1009.3
20260905232226 98 87 0.0 2.0 0.00 0.00 0.00 42 1009.4
20260905231722 98 93 0.0 2.0 0.00 0.00 0.00 42 1009.5
20260905231217 98 77 0.0 1.0 0.00 0.00 0.00 42 1009.3
20260905230714 99 56 1.0 5.0 0.00 0.00 0.00 41 1009.6
20260905230210 99 100 2.0 2.0 0.00 0.00 0.00 40 1009.6
20260905225705 100 91 3.0 3.0 0.00 0.00 0.00 40 1009.4
20260905225200 100 59 1.0 3.0 0.00 0.00 0.00 40 1009.4
20260905224659 101 96 1.0 3.0 0.00 0.00 0.00 39 1009.4
20260905224154 101 66 2.0 2.0 0.00 0.00 0.00 39 1009.3
20260905223651 101 74 0.0 3.0 0.00 0.00 0.00 39 1009.3
20260905223147 101 74 1.0 3.0 0.00 0.00 0.00 39 1009.3
20260905222642 100 76 0.0 5.0 0.00 0.00 0.00 39 1009.4
20260905222137 100 76 1.0 6.0 0.00 0.00 0.00 39 1009.2
20260905221633 100 76 2.0 2.0 0.00 0.00 0.00 39 1009.2
20260905221130 100 103 1.0 5.0 0.00 0.00 0.00 40 1009.1
20260905220625 101 54 1.0 3.0 0.00 0.00 0.00 38 1009.4
20260905220121 100 95 3.0 5.0 0.00 0.00 0.00 39 1009.4
20260905215620 101 90 3.0 6.0 0.00 0.00 0.00 39 1009.5
20260905215116 101 86 1.0 1.0 0.00 0.00 0.00 38 1009.7
20260905214612 101 60 1.0 1.0 0.00 0.00 0.00 37 1009.6
20260905214112 101 140 1.0 2.0 0.00 0.00 0.00 38 1009.5
20260905213607 101 89 1.0 2.0 0.00 0.00 0.00 38 1009.7
20260905213102 101 34 1.0 3.0 0.00 0.00 0.00 37 1009.7
20260905212557 100 81 2.0 6.0 0.00 0.00 0.00 38 1009.8
20260905212057 102 98 1.0 6.0 0.00 0.00 0.00 37 1009.7
20260905211552 101 110 1.0 1.0 0.00 0.00 0.00 38 1010.1
20260905211047 99 75 0.0 1.0 0.00 0.00 0.00 39 1009.9
20260905210543 100 72 0.0 2.0 0.00 0.00 0.00 40 1010.2
20260905210038 100 72 1.0 2.0 0.00 0.00 0.00 40 1010.0
20260905205537 100 82 3.0 5.0 0.00 0.00 0.00 41 1009.9
20260905205037 102 79 0.0 1.0 0.00 0.00 0.00 39 1010.3
20260905204532 100 66 1.0 1.0 0.00 0.00 0.00 40 1010.3
20260905204027 101 86 0.0 2.0 0.00 0.00 0.00 40 1010.5
20260905203526 101 58 0.0 2.0 0.00 0.00 0.00 40 1010.4
20260905203022 101 113 1.0 2.0 0.00 0.00 0.00 40 1010.6
20260905202517 100 75 1.0 3.0 0.00 0.00 0.00 41 1010.5
20260905202013 100 66 0.0 1.0 0.00 0.00 0.00 41 1010.7
20260905201508 100 68 1.0 3.0 0.00 0.00 0.00 41 1010.8
20260905201008 100 54 1.0 2.0 0.00 0.00 0.00 40 1010.9
20260905200504 101 85 3.0 5.0 0.00 0.00 0.00 39 1010.9
20260905200003 100 75 0.0 2.0 0.00 0.00 0.00 40 1010.9
20260905195457 100 86 0.0 1.0 0.00 0.00 0.00 40 1011.1
20260905194952 99 91 0.0 1.0 0.00 0.00 0.00 41 1011.1
20260905194452 99 128 2.0 6.0 0.00 0.00 0.00 42 1011.2
20260905193947 99 75 1.0 1.0 0.00 0.00 0.00 42 1011.2
20260905193447 98 79 0.0 2.0 0.00 0.00 0.00 42 1011.3
20260905192942 98 100 1.0 2.0 0.00 0.00 0.00 43 1011.4
20260905192437 99 81 0.0 2.0 0.00 0.00 0.00 42 1011.7
20260905191932 98 98 1.0 5.0 0.00 0.00 0.00 43 1011.8
20260905191431 99 81 0.0 2.0 0.00 0.00 0.00 43 1011.6
20260905190926 98 49 1.0 2.0 0.00 0.00 0.00 44 1011.8
20260905190423 98 255 1.0 2.0 0.00 0.00 0.00 44 1011.7
20260905185922 98 111 3.0 3.0 0.00 0.00 0.00 44 1012.2
20260905185418 98 97 0.0 1.0 0.00 0.00 0.00 45 1012.1
20260905184916 97 68 1.0 1.0 0.00 0.00 0.00 46 1012.1
20260905184411 97 99 1.0 6.0 0.00 0.00 0.00 47 1012.2
20260905183909 97 84 1.0 2.0 0.00 0.00 0.00 47 1012.3
20260905183405 97 122 3.0 6.0 0.00 0.00 0.00 47 1012.2
20260905182900 97 101 2.0 5.0 0.00 0.00 0.00 48 1012.6
20260905182359 98 66 1.0 2.0 0.00 0.00 0.00 47 1012.6
20260905181855 98 73 0.0 1.0 0.00 0.00 0.00 47 1012.5